Havre, MT

8:01 PM MDT on June 26, 2017 (GMT -0600)
Havre City-County

Weather History for KHVR - August, 2013

Change the Weather History Date:

Wednesday, August 21, 2013

  Actual Average Record
Temperature  
Mean Temperature 66 °F 67 °F  
Max Temperature 81 °F 83 °F 102 °F (1969)
Min Temperature 50 °F 51 °F 40 °F (2000)
Degree Days  
Heating Degree Days 0 2  
Month to date heating degree days 8 23  
Since 1 June heating degree days 129 186  
Since 1 July heating degree days 16 53  
Cooling Degree Days 1 4  
Month to date cooling degree days 97 120  
Year to date cooling degree days 293 341  
Since 1 June cooling degree days 286 330  
Growing Degree Days 16 (Base 50)    
Moisture  
Dew Point 44 °F    
Average Humidity 52    
Maximum Humidity 77    
Minimum Humidity 26    
Precipitation  
Precipitation 0.00 in 0.04 in 1.57 in (1933)
Month to date precipitation 0.93 0.75  
Year to date precipitation 14.89 8.31  
Snow  
Snow 0.00 in 0.00 in 0.00 in (1999)
Month to date snowfall 0.0 0.0  
Since 1 June snowfall 0.0 0.0  
Since 1 July snowfall 0.0 0.0  
Snow Depth 0.00 in    
Sea Level Pressure  
Sea Level Pressure 30.06 in    
Wind  
Wind Speed 9 mph (ENE)    
Max Wind Speed 14 mph    
Max Gust Speed 17 mph    
Visibility 10 miles    
Events      
T = Trace of Precipitation, MM = Missing Value Source: NWS Daily Summary

Daily Weather History Graph

Daily Weather History Graph

Search for Another Location

Airport or City:

Trip Planner

Search our weather history database for the weather conditions in past years. The results will help you decide how hot, cold, wet, or windy it might be!

Date:

Astronomy

Aug. 21, 2013 Rise Set
Actual Time 6:21 AM MDT 8:21 PM MDT
Civil Twilight 5:47 AM MDT 8:55 PM MDT
Nautical Twilight 5:05 AM MDT 9:37 PM MDT
Astronomical Twilight 4:18 AM MDT 10:23 PM MDT
Moon 8:21 PM MDT (8/21) 7:13 AM MDT (8/21)
Length of Visible Light 15h 07m
Length of Day
14h 00m
Full, 99% of the Moon is Illuminated
Aug 21
Full
Aug 28
Last Quarter
Sep 5
New
Sep 12
First Quarter
Sep 19
Full

Hourly Weather History & Observations

Time (MDT) Temp. Dew Point Humidity Pressure Visibility Wind Dir Wind Speed Gust Speed Precip Events Conditions
12:53 AM 55.9 °F 42.1 °F 60% 29.93 in 10.0 mi SE 4.6 mph - N/A   Clear
1:53 AM 54.0 °F 43.0 °F 66% 29.94 in 10.0 mi Calm Calm - N/A   Clear
2:53 AM 55.0 °F 42.1 °F 62% 29.96 in 10.0 mi NNW 4.6 mph - N/A   Clear
3:53 AM 55.0 °F 43.0 °F 64% 29.99 in 10.0 mi NE 9.2 mph - N/A   Clear
4:53 AM 53.1 °F 45.0 °F 74% 30.02 in 10.0 mi NE 5.8 mph - N/A   Clear
5:53 AM 52.0 °F 44.1 °F 74% 30.05 in 10.0 mi NE 11.5 mph - N/A   Clear
6:53 AM 52.0 °F 43.0 °F 71% 30.08 in 10.0 mi ENE 10.4 mph - N/A   Clear
7:53 AM 55.9 °F 43.0 °F 62% 30.10 in 10.0 mi East 15.0 mph - N/A   Clear
8:53 AM 60.1 °F 42.1 °F 51% 30.12 in 10.0 mi East 18.4 mph 25.3 mph N/A   Clear
9:53 AM 64.0 °F 43.0 °F 46% 30.11 in 10.0 mi East 17.3 mph 26.5 mph N/A   Clear
10:53 AM 66.9 °F 44.1 °F 44% 30.12 in 10.0 mi East 15.0 mph 21.9 mph N/A   Clear
11:53 AM 70.0 °F 46.0 °F 42% 30.13 in 10.0 mi East 11.5 mph 20.7 mph N/A   Clear
12:53 PM 73.9 °F 46.9 °F 38% 30.12 in 10.0 mi East 10.4 mph - N/A   Unknown
1:53 PM - - N/A% 30.13 in 10.0 mi North - - N/A   Clear
2:53 PM 79.0 °F 46.0 °F 31% 30.09 in - East 11.5 mph - N/A   Clear
4:53 PM 80.1 °F 43.0 °F 27% 30.06 in 10.0 mi NE 8.1 mph - N/A   Clear
5:53 PM 80.1 °F 43.0 °F 27% 30.04 in 10.0 mi NE 9.2 mph - N/A   Clear
6:53 PM 78.1 °F 44.1 °F 30% 30.04 in 10.0 mi ENE 10.4 mph - N/A   Clear
7:53 PM 73.0 °F 44.1 °F 35% 30.05 in 10.0 mi East 9.2 mph - N/A   Clear
8:53 PM 66.9 °F 45.0 °F 45% 30.06 in 10.0 mi East 8.1 mph - N/A   Clear
9:53 PM 63.0 °F 45.0 °F 52% 30.07 in 10.0 mi East 8.1 mph - N/A   Clear
10:53 PM 61.0 °F 44.1 °F 54% 30.07 in 10.0 mi ENE 8.1 mph - N/A   Clear
11:53 PM 60.1 °F 44.1 °F 55% 30.07 in 10.0 mi ENE 5.8 mph - N/A   Clear